GW4151 Weather Reports


time (UTC)temp
C
wind
direction
speed
KPH
gust
KPH
rain 1hr
cm
rain 24hr
cm
rain mn
cm
humidity
%
barometer
mb
20260906044513 17 182 0.0 0.0 0.00 0.00 0.00 88 997.8
20260906043012 17 187 0.0 3.2 0.00 0.00 0.00 87 997.7
20260906041507 18 176 0.0 0.0 0.00 0.00 0.00 88 997.3
20260906040003 18 156 0.0 3.2 0.00 0.03 0.03 88 997.5
20260906034500 18 94 1.6 3.2 0.00 0.03 0.03 89 997.4
20260906032957 18 184 0.0 0.0 0.00 0.03 0.03 90 997.3
20260906031455 18 166 0.0 3.2 0.00 0.03 0.03 89 997.1
20260906025951 19 178 0.0 1.6 0.00 0.03 0.03 87 997.1
20260906024450 20 162 0.0 0.0 0.00 0.03 0.03 86 997.1
20260906022946 20 179 0.0 4.8 0.00 0.03 0.03 83 996.9
20260906021443 21 180 1.6 3.2 0.00 0.03 0.03 83 996.6
20260906015938 21 174 1.6 1.6 0.00 0.03 0.03 84 996.5
20260906014438 21 169 0.0 1.6 0.00 0.03 0.03 84 996.6
20260906012936 22 204 1.6 3.2 0.00 0.03 0.03 85 996.5
20260906011431 22 103 3.2 3.2 0.00 0.03 0.03 83 996.3
20260906005930 22 164 0.0 1.6 0.00 0.03 0.03 87 995.8
20260906004428 22 204 0.0 0.0 0.00 0.03 0.03 91 995.7
20260906002925 22 171 0.0 0.0 0.00 0.03 0.03 90 995.8
20260906001421 22 174 0.0 0.0 0.00 0.03 0.03 91 995.8
20260905235918 22 193 0.0 0.0 0.00 0.03 0.03 88 995.8
20260905234414 23 195 0.0 1.6 0.00 0.03 0.03 85 996.0
20260905232914 25 188 0.0 0.0 0.00 0.03 0.03 79 995.7
20260905231414 25 136 0.0 1.6 0.00 0.03 0.03 79 995.6
20260905225913 25 103 1.6 3.2 0.00 0.03 0.03 78 995.5
20260905224411 25 330 3.2 3.2 0.00 0.03 0.03 78 995.8
20260905222908 24 39 4.8 4.8 0.00 0.03 0.03 79 995.7
20260905221406 25 88 1.6 6.4 0.00 0.03 0.03 77 995.5
20260905215902 25 254 3.2 6.4 0.00 0.03 0.03 79 995.1
20260905214402 24 289 4.8 12.9 0.00 0.03 0.03 80 995.1
20260905212859 24 58 3.2 6.4 0.00 0.03 0.03 83 995.2
20260905211354 23 145 3.2 6.4 0.00 0.03 0.03 85 995.2
20260905205849 23 59 1.6 6.4 0.00 0.03 0.03 87 994.9
20260905204346 23 143 1.6 4.8 0.00 0.03 0.03 89 995.2
20260905202842 22 84 1.6 9.7 0.00 0.03 0.03 90 995.2
20260905201339 22 76 1.6 4.8 0.00 0.03 0.03 93 995.4
20260905195839 21 199 1.6 6.4 0.00 0.03 0.03 97 995.4
20260905194336 21 109 1.6 4.8 0.00 0.03 0.03 98 995.5
20260905192832 20 354 6.4 6.4 0.00 0.03 0.03 98 995.7
20260905191332 20 356 1.6 4.8 0.00 0.03 0.03 98 995.8
20260905185829 20 178 1.6 3.2 0.00 0.03 0.03 98 995.7
20260905184329 20 327 4.8 4.8 0.00 0.03 0.03 97 995.8
20260905182823 20 255 1.6 3.2 0.18 0.03 0.03 97 996.1
20260905181318 20 176 3.2 6.4 0.00 0.00 0.00 96 996.0
20260905175813 21 53 3.2 4.8 0.00 0.00 0.00 94 995.7
20260905174311 21 304 3.2 4.8 0.00 0.00 0.00 93 995.7
20260905172808 21 13 3.2 9.7 0.00 0.00 0.00 92 995.7
20260905171305 21 37 6.4 11.3 0.00 0.00 0.00 91 995.7
20260905165801 21 78 3.2 11.3 0.00 0.00 0.00 92 996.0
20260905164258 21 43 6.4 9.7 0.00 0.00 0.00 90 995.5
20260905162757 22 349 1.6 12.9 0.00 0.00 0.00 90 995.8
20260905161255 22 103 3.2 4.8 0.00 0.00 0.00 90 995.6
20260905155755 21 34 6.4 9.7 0.00 0.00 0.00 90 995.6
20260905154250 21 352 3.2 9.7 0.00 0.00 0.00 91 995.6
20260905152748 21 68 3.2 6.4 0.00 0.00 0.00 90 995.3
20260905151244 21 26 1.6 3.2 0.00 0.00 0.00 91 995.5
20260905145740 21 334 3.2 6.4 0.00 0.00 0.00 92 995.5
20260905144236 21 6 1.6 4.8 0.00 0.00 0.00 93 995.4
20260905142733 21 21 3.2 4.8 0.00 0.00 0.00 93 995.3
20260905141231 21 58 3.2 6.4 0.00 0.00 0.00 93 995.0
20260905135726 21 172 1.6 4.8 0.00 0.00 0.00 95 994.8
20260905134226 21 151 0.0 4.8 0.00 0.00 0.00 96 994.9
20260905132721 20 30 6.4 9.7 0.00 0.00 0.00 98 994.8
20260905131219 20 358 6.4 9.7 0.00 0.00 0.00 99 994.5
20260905125714 20 50 4.8 4.8 0.00 0.00 0.00 99 994.6
20260905124213 20 173 1.6 9.7 0.00 0.00 0.00 99 994.5
20260905122710 20 47 4.8 6.4 0.00 0.00 0.00 99 994.1
20260905121208 20 87 6.4 9.7 0.00 0.00 0.00 99 994.0
20260905115707 20 106 6.4 9.7 0.00 0.00 0.00 99 994.2
20260905114206 21 38 3.2 3.2 0.00 0.00 0.00 99 994.1
20260905112701 21 176 0.0 1.6 0.00 0.00 0.00 99 993.6
20260905111156 21 194 0.0 1.6 0.00 0.00 0.00 99 993.7
20260905105652 20 247 1.6 3.2 0.00 0.00 0.00 99 993.6
20260905104148 21 108 3.2 6.4 0.00 0.00 0.00 99 993.6
20260905102646 21 187 1.6 3.2 0.00 0.00 0.00 99 993.8
20260905101145 21 29 1.6 3.2 0.00 0.00 0.00 99 993.8
20260905095641 21 114 1.6 6.4 0.00 0.00 0.00 99 993.5
20260905094137 21 44 3.2 6.4 0.00 0.00 0.00 99 993.4
20260905092634 21 193 3.2 9.7 0.00 0.00 0.00 99 993.2
20260905091129 21 208 1.6 3.2 0.00 0.00 0.00 99 993.5
20260905085624 21 178 1.6 3.2 0.00 0.00 0.00 99 993.4
20260905084120 21 230 3.2 6.4 0.00 0.00 0.00 99 993.2
20260905082618 20 72 3.2 6.4 0.00 0.00 0.00 99 992.9
20260905081114 20 348 0.0 0.0 0.00 0.00 0.00 99 992.8
20260905075613 20 106 0.0 1.6 0.00 0.00 0.00 99 992.9
20260905074108 20 32 0.0 4.8 0.00 0.00 0.00 99 992.7
20260905072604 20 240 0.0 0.0 0.00 0.00 0.00 99 993.1
20260905071103 20 131 0.0 1.6 0.00 0.00 0.00 99 992.8
20260905065557 20 3 3.2 11.3 0.00 0.00 0.00 99 993.1
20260905064054 20 151 0.0 1.6 0.00 0.00 0.00 99 993.4
20260905062550 20 194 0.0 0.0 0.00 0.00 0.00 99 993.4
20260905061050 20 141 0.0 1.6 0.00 0.00 0.00 99 993.1
20260905055546 20 183 0.0 0.0 0.00 0.00 0.00 99 993.1
20260905054044 20 180 0.0 0.0 0.00 0.00 0.00 99 993.3
20260905052544 20 151 0.0 0.0 0.00 0.00 0.00 99 993.4
20260905051044 20 151 0.0 0.0 0.00 0.00 0.00 99 993.6
20260905045542 21 151 0.0 0.0 0.00 0.00 0.00 99 993.5